Frisco, NC

12:52 PM EST on December 07, 2016 (GMT -0500)
Mitchell

Weather History for KHSE - March, 2013

Change the Weather History Date:

Monday, March 4, 2013

  Actual Average Record
Temperature  
Mean Temperature 42 °F 49 °F  
Max Temperature 47 °F 56 °F 72 °F (1976)
Min Temperature 37 °F 42 °F 24 °F (1943)
Degree Days  
Heating Degree Days 23 16  
Month to date heating degree days 84 65  
Since 1 July heating degree days 1816 1989  
Cooling Degree Days 0 0  
Month to date cooling degree days 0 0  
Year to date cooling degree days 0 0  
Moisture  
Dew Point 25 °F    
Average Humidity 51    
Maximum Humidity 64    
Minimum Humidity 37    
Precipitation  
Precipitation 0.00 in 0.14 in 2.47 in (2016)
Month to date precipitation 0.00 0.59  
Year to date precipitation 9.73 9.85  
Snow  
Snow 0.00 in - - ()
Month to date snowfall 0.0  
Since 1 July snowfall 0.0  
Snow Depth 0.00 in    
Sea Level Pressure  
Sea Level Pressure 30.00 in    
Wind  
Wind Speed 10 mph (NW)    
Max Wind Speed 15 mph    
Max Gust Speed 24 mph    
Visibility 10 miles    
Events      
T = Trace of Precipitation, MM = Missing Value Source: NWS Daily Summary

Daily Weather History Graph

Daily Weather History Graph

Search for Another Location

Airport or City:

Trip Planner

Search our weather history database for the weather conditions in past years. The results will help you decide how hot, cold, wet, or windy it might be!

Date:

Astronomy

Mar. 04, 2013 Rise Set
Actual Time 6:27 AM EST 6:00 PM EST
Civil Twilight 6:02 AM EST 6:26 PM EST
Nautical Twilight 5:33 AM EST 6:55 PM EST
Astronomical Twilight 5:03 AM EST 7:25 PM EST
Moon 12:25 AM EST (3/4) 10:49 AM EST (3/4)
Length of Visible Light 12h 23m
Length of Day
11h 33m
Waning Gibbous, 52% of the Moon is Illuminated
Mar 4
Waning Gibbous
Mar 4
Last Quarter
Mar 11
New
Mar 19
First Quarter
Mar 27
Full

Hourly Weather History & Observations

Time (EST) Temp. Windchill Dew Point Humidity Pressure Visibility Wind Dir Wind Speed Gust Speed Precip Events Conditions
12:51 AM 41.0 °F 34.7 °F 26.1 °F 55% 29.91 in 10.0 mi NW 10.4 mph 19.6 mph N/A   Clear
1:51 AM 39.0 °F 31.4 °F 26.1 °F 60% 29.91 in 10.0 mi NW 12.7 mph 20.7 mph N/A   Clear
2:51 AM 37.9 °F 30.9 °F 25.0 °F 60% 29.90 in 10.0 mi NW 10.4 mph 18.4 mph N/A   Clear
3:51 AM 37.9 °F 31.5 °F 27.0 °F 65% 29.92 in 10.0 mi NW 9.2 mph 17.3 mph N/A   Clear
4:51 AM 37.0 °F 31.0 °F 27.0 °F 67% 29.94 in 10.0 mi NW 8.1 mph 17.3 mph N/A   Clear
5:51 AM 37.0 °F 31.0 °F 27.0 °F 67% 29.95 in 10.0 mi NNW 8.1 mph - N/A   Clear
6:51 AM 37.0 °F 31.6 °F 26.1 °F 65% 29.97 in 10.0 mi Variable 6.9 mph - N/A   Overcast
7:51 AM 37.0 °F 31.6 °F 25.0 °F 62% 29.99 in 10.0 mi Variable 6.9 mph - N/A   Overcast
8:51 AM 37.9 °F 32.1 °F 24.1 °F 57% 30.02 in 10.0 mi North 8.1 mph - N/A   Overcast
9:51 AM 41.0 °F 34.3 °F 21.9 °F 47% 30.03 in 10.0 mi NNW 11.5 mph 20.7 mph N/A   Partly Cloudy
10:51 AM 42.1 °F 36.1 °F 23.0 °F 47% 30.03 in 10.0 mi NNW 10.4 mph 20.7 mph N/A   Clear
11:51 AM 42.1 °F 35.7 °F 21.9 °F 45% 30.03 in 10.0 mi NW 11.5 mph 18.4 mph N/A   Clear
12:51 PM 44.1 °F 37.7 °F 21.9 °F 42% 30.01 in 10.0 mi NW 12.7 mph 19.6 mph N/A   Clear
1:51 PM 44.1 °F 38.1 °F 21.0 °F 40% 30.00 in 10.0 mi WNW 11.5 mph 19.6 mph N/A   Clear
2:51 PM 46.0 °F 40.6 °F 21.0 °F 37% 29.99 in 10.0 mi WNW 11.5 mph 18.4 mph N/A   Clear
3:51 PM 46.9 °F - 21.0 °F 36% 30.00 in 10.0 mi WNW 8.1 mph - N/A   Clear
4:51 PM 45.0 °F 38.9 °F 25.0 °F 46% 29.99 in 10.0 mi West 12.7 mph 21.9 mph N/A   Clear
5:51 PM 44.1 °F 39.5 °F 25.0 °F 47% 30.00 in 10.0 mi WNW 8.1 mph 16.1 mph N/A   Clear
6:51 PM 45.0 °F 39.7 °F 21.0 °F 39% 30.03 in 10.0 mi WNW 10.4 mph 17.3 mph N/A   Clear
7:51 PM 45.0 °F 40.1 °F 23.0 °F 42% 30.05 in 10.0 mi WNW 9.2 mph 17.3 mph N/A   Clear
8:51 PM 46.0 °F 41.4 °F 25.0 °F 44% 30.06 in 10.0 mi West 9.2 mph 17.3 mph N/A   Clear
9:51 PM 46.0 °F 41.4 °F 27.0 °F 47% 30.07 in 10.0 mi WNW 9.2 mph - N/A   Clear
10:51 PM 46.0 °F 42.5 °F 28.0 °F 50% 30.08 in 10.0 mi West 6.9 mph - N/A   Clear
11:51 PM 46.0 °F 42.5 °F 28.9 °F 51% 30.08 in 10.0 mi WNW 6.9 mph - N/A   Clear